Location: Enborne
(51.3833°N, 1.3667°W)
Time: 17:22:31
(UTC+00:00)

Cosmos 1674 - Pass Details

Date: 18 September 2020
Orbit: 494 x 518 km, 82.5° (Epoch: 31 October)

Event Time Altitude Azimuth Distance (km) Brightness Sun altitude
Rises 20:37:07 0° 344° (NNW) 2,656 7.1 -22.1°
Reaches altitude 10° 20:39:20 10° 337° (NNW) 1,764 6.2 -22.4°
Maximum altitude 20:42:59 41° 267° (W) 761 3.8 -22.9°
Enters shadow 20:44:15 31° 221° (SW) 939 4.0 -23.1°
